[[{"header":{"parameterUnit":"m.s-1","parameterCategory":1,"la1":30.2991,"la2":30.254,"lo1":-89.0895,"lo2":-89.0444,"dy":0.0017,"dx":0.0017,"nx":28,"ny":28,"refTime":"2026-03-02T09:00:00:Z","depth":0,"parameterNumber":2,"parameterNumberName":"U-component_of_WINDS"},"data":[0,0,0,0,0,0,0,0,0,0,0,0,0,0,0,0,0,0,0,0,0,0,0,0,0,0,0,0,0,0,0,0,0,0,0,0,0,0,0,0,0,0,0,0,0,0,0,0,0,0,0,0,0,0,0,0,0,0,-3.8094,-3.8092,0,-3.798,-3.7979,-3.7978,-3.7846,-3.7844,-3.7842,-3.784,-3.7722,-3.7721,-3.7719,0,0,0,0,0,0,0,0,0,0,0,0,0,-3.8196,-3.8195,-3.8094,-3.8092,-3.8091,-3.798,-3.7979,-3.7977,-3.7846,-3.7843,-3.7841,-3.7839,-3.7722,-3.7721,-3.7719,0,0,0,0,0,0,0,0,0,0,0,0,0,-3.8124,-3.8194,-3.8094,-3.8012,-3.8004,-3.7981,-3.7979,-3.7977,-3.7846,-3.7843,-3.784,-3.7838,-3.7723,-3.7721,-3.7719,-3.7767,0,0,-3.7713,-3.7712,0,0,0,0,0,0,0,0,-3.8128,-3.812,-3.8026,-3.8018,-3.8008,-3.7924,-3.7971,-3.7906,-3.7847,-3.7906,-3.784,-3.7836,-3.7791,-3.7784,-3.7769,-3.7761,-3.7756,-3.7713,-3.7712,-3.7711,-3.771,0,0,0,0,0,0,0,-3.8133,-3.8124,-3.8049,-3.8024,-3.8014,-3.7981,-3.7967,-3.7959,-3.7867,-3.7901,-3.7891,-3.7879,-3.7786,-3.7771,-3.7765,-3.7755,-3.7713,-3.7711,-3.771,-3.7709,-3.7781,-3.7784,0,0,0,0,0,0,-3.8151,-3.813,-3.8052,-3.8045,-3.8062,-3.7981,-3.7966,-3.7954,-3.7867,-3.785,-3.7882,-3.7874,-3.7776,-3.7768,-3.7761,-3.781,-3.7711,-3.7709,-3.7708,-3.7778,-3.7781,-3.7785,0,0,0,0,0,0,-3.8154,-3.8145,-3.8057,-3.8085,-3.8071,-3.7983,-3.797,-3.7953,-3.7938,-3.7852,-3.7835,-3.7884,-3.7773,-3.7763,-3.7766,-3.7804,-3.7708,-3.7707,-3.7774,-3.7779,-3.7783,-3.7911,0,0,0,0,0,0,-3.8157,-3.8147,-3.8164,-3.8086,-3.807,-3.8065,-3.7972,-3.7953,-3.7935,-3.7923,-3.7849,-3.7834,-3.777,-3.777,-3.7765,-3.78,-3.7705,-3.777,-3.7776,-3.7782,-3.7903,-3.7919,-3.7934,0,0,0,0,0,-3.8161,-3.8205,-3.8166,-3.8157,-3.809,-3.8068,-3.8058,-3.7984,-3.7939,-3.7955,-3.7901,-3.7837,-3.7802,-3.7772,-3.7764,-3.78,-3.7767,-3.7775,-3.7781,-3.7896,-3.7916,-3.7933,0,0,0,0,0,0,-3.8289,-3.8193,-3.8149,-3.8168,-3.8128,-3.8046,-3.8064,-3.8008,-3.7978,-3.7968,-3.7877,-3.7861,-3.7875,-3.7838,-3.7806,-3.7841,-3.7775,-3.7781,-3.7865,-3.7884,-3.7899,-3.7907,-3.7704,0,0,0,0,0,-3.832,-3.831,-3.8226,-3.8252,-3.8233,-3.8153,-3.814,-3.8087,-3.804,-3.8022,-3.7967,-3.7925,-3.7903,-3.7892,-3.7868,-3.7898,-3.7879,-3.7919,-3.7934,-3.7947,-3.7952,-3.7965,-3.7981,-3.7807,-3.7807,-3.7807,0,0,-3.8382,-3.8329,-3.8328,-3.8276,-3.8238,-3.823,-3.8139,-3.8134,-3.8127,-3.8021,-3.8021,-3.798,-3.7925,-3.7943,-3.7947,-3.7911,-3.7997,-3.7956,-3.7967,-3.7965,-3.7974,-3.799,-3.8005,-3.7812,-3.7811,-3.781,0,0,-3.8492,-3.8451,-3.8467,-3.8431,-3.8375,-3.8321,-3.8326,-3.8253,-3.8221,-3.822,-3.8141,-3.8131,-3.8097,-3.8062,-3.804,-3.8138,-3.8078,-3.8133,-3.8212,-3.8226,-3.8239,-3.8251,-3.8285,-3.8299,-3.8139,-3.8139,-3.814,0,-3.8576,-3.8561,-3.8483,-3.8482,-3.8462,-3.8367,-3.8383,-3.8352,-3.8291,-3.8279,-3.824,-3.8196,-3.8153,-3.8161,-3.8185,-3.817,-3.8172,-3.814,-3.8244,-3.8255,-3.8264,-3.8296,-3.831,-3.8146,-3.8146,-3.8145,-3.8144,0,-3.8668,-3.8658,-3.8678,-3.8623,-3.8604,-3.8613,-3.8535,-3.8526,-3.8475,-3.8426,-3.8426,-3.8371,-3.8335,-3.8333,-3.8282,-3.8333,-3.8313,-3.8261,-3.8192,-3.8289,-3.8318,-3.8329,-3.8156,-3.8154,-3.8152,-3.815,0,0,-3.8852,-3.8754,-3.8763,-3.8737,-3.8669,-3.866,-3.8664,-3.8629,-3.8623,-3.8585,-3.8585,-3.856,-3.8511,-3.8486,-3.8431,-3.8444,-3.8525,-3.8389,-3.8387,-3.8416,-3.8577,-3.8616,-3.8631,-3.8485,-3.8487,-3.8489,-3.8581,0,-3.8949,-3.895,-3.888,-3.8901,-3.8891,-3.8802,-3.8806,-3.8765,-3.8719,-3.8704,-3.8653,-3.8636,-3.8574,-3.8558,-3.8567,-3.8513,-3.8555,-3.8506,-3.8484,-3.8484,-3.8499,-3.8646,-3.8686,-3.8776,-3.8591,-3.8593,-3.8595,0,-3.9061,-3.903,-3.905,-3.8982,-3.8975,-3.8979,-3.8942,-3.8929,-3.8881,-3.8847,-3.882,-3.8758,-3.8757,-3.8694,-3.8691,-3.8658,-3.8646,-3.8618,-3.862,-3.8614,-3.8544,-3.8643,-3.8803,-3.8816,-3.8611,-3.861,-3.8609,0,-3.9192,-3.9156,-3.9163,-3.9143,-3.9064,-3.9069,-3.9037,-3.8985,-3.8969,-3.8937,-3.8925,-3.8893,-3.8875,-3.8852,-3.8783,-3.8743,-3.8788,-3.8719,-3.8759,-3.8761,-3.8771,-3.8771,-3.8931,-3.8766,-3.8766,-3.8765,-3.8765,0,-3.9306,-3.9322,-3.9221,-3.9225,-3.924,-3.9161,-3.9177,-3.9136,-3.9091,-3.9086,-3.9007,-3.9004,-3.8913,-3.89,-3.8846,-3.8852,-3.8845,-3.8817,-3.8802,-3.8823,-3.8826,-3.8812,-3.8804,-3.8769,-3.8768,-3.8767,-3.8767,0,-3.9455,-3.9388,-3.939,-3.9316,-3.9298,-3.9312,-3.9248,-3.9249,-3.9199,-3.9193,-3.9187,-3.9109,-3.9089,-3.9019,-3.8981,-3.8945,-3.8967,-3.894,-3.8984,-3.8974,-3.9018,-3.9015,-3.9173,-3.9189,-3.9016,-3.9018,-3.9019,0,-3.9531,-3.9541,-3.9469,-3.946,-3.9431,-3.9417,-3.9401,-3.9323,-3.9309,-3.9255,-3.9263,-3.9237,-3.9211,-3.9184,-3.9124,-3.9095,-3.9065,-3.9123,-3.906,-3.9081,-3.9065,-3.9065,-3.9065,-3.9136,-3.9138,-3.914,-3.9141,0,-3.9674,-3.9641,-3.962,-3.9588,-3.9571,-3.9542,-3.9508,-3.9506,-3.9419,-3.9407,-3.9386,-3.9367,-3.9329,-3.9304,-3.9266,-3.9232,-3.9172,-3.9162,-3.9169,-3.919,-3.9215,-3.9202,-3.902,-3.9158,-3.9156,-3.9155,-3.9154,-3.9154,-3.9787,-3.9792,-3.9742,-3.9722,-3.9689,-3.966,-3.9657,-3.9608,-3.9589,-3.9553,-3.9509,-3.9493,-3.9445,-3.9387,-3.9358,-3.9345,-3.9312,-3.9323,-3.9326,-3.9329,-3.934,-3.9219,-3.9337,-3.9337,-3.9336,-3.9336,-3.9335,0,-3.9925,-3.9889,-3.9871,-3.9827,-3.9812,-3.9759,-3.9719,-3.9709,-3.9697,-3.9658,-3.9635,-3.9611,-3.9587,-3.9526,-3.9496,-3.9497,-3.9469,-3.9492,-3.949,-3.9483,-3.9371,-3.9367,-3.9515,-3.9515,-3.9515,-3.9515,-3.9515,-3.9515,-3.9995,-4.0,-3.9962,-3.995,-3.9913,-3.9898,-3.988,-3.9853,-3.9821,-3.9798,-3.9778,-3.9739,-3.9691,-3.9657,-3.9632,-3.9615,-3.9607,-3.9639,-3.9613,-3.9508,-3.9491,-3.9475,-3.947,-3.9638,-3.9638,-3.9725,-3.9726,-3.9727]},{"header":{"parameterUnit":"m.s-1","parameterCategory":1,"la1":30.2991,"la2":30.254,"lo1":-89.0895,"lo2":-89.0444,"dy":0.0017,"dx":0.0017,"nx":28,"ny":28,"refTime":"2026-03-02T09:00:00:Z","depth":0,"parameterNumber":3,"parameterNumberName":"V-component_of_WINDS"},"data":[0,0,0,0,0,0,0,0,0,0,0,0,0,0,0,0,0,0,0,0,0,0,0,0,0,0,0,0,0,0,0,0,0,0,0,0,0,0,0,0,0,0,0,0,0,0,0,0,0,0,0,0,0,0,0,0,0,0,1.8605,1.8606,0,1.872,1.8721,1.8722,1.8764,1.8764,1.8764,1.8763,1.8872,1.8875,1.8878,0,0,0,0,0,0,0,0,0,0,0,0,0,1.8416,1.842,1.8605,1.8607,1.8608,1.872,1.8721,1.8723,1.8764,1.8764,1.8764,1.8763,1.8871,1.8875,1.8879,0,0,0,0,0,0,0,0,0,0,0,0,0,1.8511,1.8421,1.8605,1.8643,1.8647,1.8719,1.8721,1.8723,1.8764,1.8764,1.8763,1.8763,1.887,1.8874,1.8879,1.892,0,0,1.8894,1.8896,0,0,0,0,0,0,0,0,1.8506,1.8518,1.8636,1.864,1.8645,1.8727,1.8694,1.8789,1.8765,1.872,1.8763,1.8763,1.8824,1.8832,1.8855,1.8925,1.8929,1.8894,1.8897,1.8899,1.8901,0,0,0,0,0,0,0,1.8499,1.8513,1.865,1.8637,1.8643,1.8652,1.8664,1.8712,1.8773,1.8723,1.8727,1.874,1.8826,1.885,1.8858,1.8931,1.8894,1.8899,1.8902,1.8903,1.9043,1.9043,0,0,0,0,0,0,1.8487,1.8507,1.8647,1.8654,1.8573,1.8655,1.867,1.8701,1.8773,1.8783,1.8741,1.8742,1.8842,1.8852,1.8861,1.8916,1.8899,1.8904,1.8907,1.9042,1.9043,1.9044,0,0,0,0,0,0,1.8483,1.8499,1.8642,1.8582,1.8601,1.8659,1.8694,1.8704,1.8728,1.8786,1.8796,1.8754,1.8842,1.8855,1.8906,1.892,1.8906,1.891,1.9041,1.9042,1.9043,1.9023,0,0,0,0,0,0,1.8477,1.8497,1.8515,1.8582,1.8604,1.8686,1.8695,1.8707,1.8737,1.874,1.8801,1.8811,1.8842,1.8899,1.8911,1.8927,1.8914,1.904,1.9041,1.9043,1.9023,1.9024,1.9024,0,0,0,0,0,1.847,1.8502,1.8515,1.8532,1.8627,1.8687,1.8699,1.8738,1.8738,1.8755,1.8793,1.8809,1.8917,1.8904,1.8918,1.8935,1.9039,1.9041,1.9043,1.9023,1.9024,1.9024,0,0,0,0,0,0,1.8431,1.8511,1.8527,1.8582,1.8628,1.8694,1.8717,1.8737,1.8781,1.8782,1.8825,1.8838,1.8887,1.8916,1.89,1.8979,1.8979,1.8983,1.8959,1.896,1.8961,1.8953,1.8918,0,0,0,0,0,1.843,1.8474,1.8541,1.8583,1.8605,1.8657,1.8685,1.8711,1.8759,1.8778,1.8819,1.8863,1.8907,1.8935,1.8978,1.9027,1.9042,1.9046,1.9047,1.9047,1.9051,1.9081,1.9084,1.9049,1.9049,1.9049,0,0,1.8425,1.8475,1.8499,1.8576,1.8615,1.8659,1.8673,1.8718,1.8751,1.8784,1.8837,1.8868,1.892,1.8971,1.8995,1.8997,1.9064,1.9049,1.9049,1.9053,1.9083,1.9086,1.9089,1.9051,1.905,1.905,0,0,1.8441,1.8482,1.8523,1.8563,1.8623,1.8658,1.8668,1.8732,1.8756,1.881,1.8836,1.8874,1.8949,1.8986,1.9014,1.9046,1.9063,1.9059,1.9062,1.9091,1.9094,1.9097,1.911,1.9114,1.9062,1.9062,1.9062,0,1.8427,1.8497,1.8541,1.8586,1.8619,1.8655,1.8696,1.8731,1.8801,1.8822,1.8823,1.892,1.8957,1.9018,1.9027,1.9048,1.906,1.9052,1.9091,1.9094,1.9097,1.911,1.9114,1.9061,1.9062,1.9062,1.9062,0,1.8478,1.8526,1.8551,1.8623,1.8659,1.8701,1.875,1.8781,1.8804,1.8838,1.8893,1.894,1.8995,1.9011,1.9032,1.9076,1.9075,1.9083,1.9083,1.9099,1.9112,1.9117,1.906,1.9061,1.9061,1.9061,0,0,1.847,1.8568,1.8577,1.8611,1.8681,1.8718,1.8762,1.882,1.8846,1.8892,1.8931,1.8994,1.9003,1.9035,1.9061,1.9086,1.9112,1.9091,1.9093,1.9095,1.9165,1.9159,1.9165,1.9123,1.9124,1.9125,1.9161,0,1.8496,1.8581,1.8623,1.8688,1.8734,1.877,1.8808,1.8855,1.8888,1.893,1.8966,1.9011,1.9018,1.9039,1.9065,1.9103,1.9126,1.9101,1.9158,1.916,1.9146,1.9171,1.9165,1.9197,1.9166,1.9167,1.9167,0,1.8537,1.8589,1.866,1.8728,1.8749,1.8783,1.8841,1.8881,1.8934,1.8956,1.8994,1.902,1.9067,1.9065,1.913,1.9112,1.9137,1.916,1.9162,1.9169,1.9165,1.918,1.9207,1.9213,1.9176,1.9175,1.9174,0,1.8526,1.8613,1.8668,1.8696,1.8776,1.88,1.8834,1.8887,1.892,1.8968,1.899,1.9042,1.9071,1.911,1.9149,1.9143,1.9211,1.9211,1.9231,1.923,1.9244,1.9243,1.9277,1.9258,1.9258,1.9258,1.9258,0,1.8551,1.8594,1.8665,1.8699,1.8748,1.8795,1.8842,1.8878,1.8925,1.8966,1.8998,1.9034,1.9084,1.9126,1.9156,1.9207,1.9219,1.9238,1.9245,1.9236,1.9234,1.9254,1.9253,1.9259,1.9259,1.9259,1.9259,0,1.8547,1.8597,1.866,1.8732,1.8751,1.8784,1.8845,1.8879,1.8915,1.8966,1.898,1.9036,1.9088,1.9132,1.9198,1.9219,1.9272,1.928,1.9255,1.926,1.9278,1.9276,1.9327,1.9336,1.931,1.931,1.931,0,1.856,1.8595,1.8673,1.8704,1.8739,1.8788,1.8823,1.8871,1.8905,1.8971,1.8996,1.9052,1.9099,1.9179,1.9225,1.9276,1.9287,1.9301,1.9294,1.9285,1.9289,1.9287,1.9291,1.9302,1.9302,1.9302,1.9302,0,1.8579,1.8603,1.8654,1.8714,1.8756,1.8805,1.8854,1.8877,1.8934,1.8971,1.9027,1.9064,1.9135,1.9189,1.9246,1.9279,1.93,1.9304,1.9312,1.9302,1.9287,1.9298,1.9258,1.9302,1.9302,1.9302,1.9302,1.9302,1.8585,1.8619,1.868,1.8736,1.878,1.8826,1.8862,1.8905,1.8954,1.9018,1.9042,1.91,1.9153,1.9234,1.9266,1.9311,1.9313,1.9324,1.9327,1.9329,1.9329,1.928,1.9321,1.9321,1.9321,1.9321,1.9321,0,1.8606,1.8649,1.8701,1.8771,1.8816,1.8836,1.8892,1.8927,1.8978,1.9029,1.9076,1.9141,1.9194,1.9245,1.9301,1.9327,1.9338,1.934,1.9339,1.9347,1.9322,1.9311,1.933,1.933,1.933,1.933,1.933,1.933,1.8623,1.8682,1.8714,1.8794,1.8836,1.8896,1.8926,1.8969,1.901,1.9083,1.9129,1.9163,1.9214,1.9274,1.9324,1.9338,1.9357,1.9357,1.9373,1.9349,1.9348,1.9346,1.9336,1.9361,1.9361,1.9394,1.9394,1.9394]}]]